Weather observations for the past three days for
Spencer Municipal Airport
Imperial (Metric)
Date Time (cdt) Wind (mph) Vis. (mi.) Weather Sky Cond. Temperature (ºF) Relative Humidity Wind Chill (°F) Heat Index (°F) Pressure Precipitation (in)
Air Dwpt 6 hour altimeter (in) sea level (mb) 1 hr 3 hr 6 hr
Max. Min.
13 11:53 N 15 G 26 10.00 Fair CLR 78.1 55.9 47% 79 29.92 1012.0
13 10:53 NE 5 10.00 A Few Clouds FEW090 73 57 57% 29.91 1012.0
13 09:53 N 20 G 33 10.00 Light Rain FEW048 SCT070 BKN110 72 53.1 52% 29.92 1012.3
13 08:53 N 21 G 36 10.00 Fair and Breezy CLR 77 52 42% 78 29.86 1010.2
13 07:53 NE 10 10.00 Fair CLR 73.9 57.9 57% 29.82 1008.7
13 06:53 NE 12 10.00 Fair CLR 71.1 63 71.1 63 76% 29.76 1006.7
13 05:53 W 5 10.00 Fair CLR 63 60.1 90% 29.77 1007.4
13 04:53 NW 3 10.00 Fair CLR 64 60.1 87% 29.75 1006.7
13 03:53 NW 7 10.00 Fair CLR 64 61 90% 29.75 1006.6
13 02:53 SE 8 10.00 Fair CLR 66.9 63 87% 29.7 1005.0
13 01:53 W 3 10.00 Fair CLR 70 64 82% 29.74 1006.2
13 00:53 SW 7 10.00 Fair CLR 71.1 64 82.9 71.1 79% 29.74 1006.3
12 23:53 S 8 10.00 Fair CLR 75 64 69% 77 29.74 1006.0
12 22:53 S 10 10.00 Fair CLR 78.1 62.1 58% 80 29.73 1005.5
12 21:53 SE 6 10.00 A Few Clouds FEW075 75.9 63 64% 78 29.72 1005.3
12 20:53 S 8 10.00 A Few Clouds FEW075 79 62.1 56% 80 29.71 1004.9
12 19:53 SE 9 10.00 Partly Cloudy SCT080 SCT100 81 64.9 58% 83 29.7 1004.7
12 18:53 SE 10 10.00 A Few Clouds FEW100 82.9 68 84.9 73 61% 86 29.72 1005.6
12 17:53 SE 12 10.00 A Few Clouds FEW095 82.9 66 57% 85 29.76 1006.7
12 16:53 SE 10 10.00 Fair CLR 84 64.9 53% 86 29.78 1007.7
12 15:53 SE 14 10.00 A Few Clouds FEW110 75 66.9 76% 76 29.79 1008.1
12 14:53 NW 9 10.00 Light Rain FEW095 OVC120 73.9 64 71% 29.83 1009.6
12 13:53 SW 16 10.00 Light Rain CLR 77 61 58% 79 29.79 1008.1
12 12:53 SW 21 G 36 10.00 Fair and Breezy CLR 81 60.1 87.1 69.1 49% 82 29.78 1007.7
12 11:53 S 20 G 39 10.00 Fair CLR 81 60.1 49% 82 29.74 1006.3
12 10:53 SW 24 G 36 10.00 Fair and Breezy CLR 86 59 40% 85 29.79 1007.6
12 09:53 SW 24 G 35 10.00 Fair and Breezy CLR 84.9 59 42% 85 29.79 1007.7
12 08:53 SW 15 10.00 Fair CLR 81 57.9 45% 81 29.81 1008.5
12 07:53 S 12 10.00 Fair CLR 75.9 57 52% 78 29.81 1008.5
12 06:53 S 8 10.00 Fair CLR 69.1 55 69.1 61 61% 29.83 1009.1
12 05:53 S 7 10.00 Fair CLR 66 53.1 63% 29.84 1009.6
12 04:53 S 8 10.00 A Few Clouds FEW120 63 54 73% 29.86 1010.1
12 03:53 SE 3 10.00 Fair CLR 63 54 73% 29.87 1010.6
12 02:53 S 3 10.00 A Few Clouds FEW120 64 55 73% 29.88 1010.9
12 01:53 S 3 10.00 A Few Clouds FEW110 64 55.9 75% 29.88 1011.0
12 00:53 E 3 10.00 Fair CLR 64 55 84.9 64 73% 29.87 1010.8
11 23:53 S 7 10.00 Fair CLR 64.9 54 68% 29.88 1010.9
11 22:53 Calm 10.00 Fair CLR 70 52 53% 29.88 1010.8
11 21:53 W 8 10.00 Fair CLR 70 51.1 51% 29.87 1010.8
11 20:53 W 7 10.00 Fair CLR 75 51.1 43% 78 29.86 1010.4
11 19:53 NW 12 10.00 Fair CLR 82.9 48.9 31% 81 29.85 1010.1
11 18:53 NW 13 G 23 10.00 Fair CLR 84.9 50 88 84 30% 83 29.85 1009.8
11 17:53 NW 20 G 29 10.00 A Few Clouds FEW095 87.1 48 26% 84 29.85 1009.8
11 16:53 NW 17 G 28 10.00 Fair CLR 87.1 48 26% 84 29.85 1009.9
11 15:53 NW 18 G 32 10.00 Fair CLR 87.1 46.9 25% 84 29.86 1010.1
11 14:53 NW 20 G 30 10.00 Fair CLR 87.1 50 28% 84 29.86 1010.2
11 13:53 NW 20 G 31 10.00 Fair CLR 86 54 33% 84 29.86 1010.1
11 12:53 W 23 G 31 10.00 Fair and Breezy CLR 84 54 84 63 36% 83 29.87 1010.4
11 11:53 NW 21 G 30 10.00 Fair and Breezy CLR 82 57 43% 82 29.87 1010.6
11 10:53 NW 13 10.00 Fair CLR 79 57.9 49% 80 29.88 1010.8
11 09:53 W 15 10.00 Fair CLR 75.9 59 56% 78 29.87 1010.9
11 08:53 SW 15 G 23 10.00 Partly Cloudy SCT030 72 55 55% 29.87 1010.9
11 07:53 S 10 10.00 A Few Clouds FEW090 64.9 54 68% 29.87 1010.7
11 06:53 S 9 10.00 Partly Cloudy FEW070 SCT090 SCT110 63 53.1 68 62.1 70% 29.87 1010.8
11 05:53 S 9 10.00 Overcast BKN085 OVC100 64 48 56% 29.87 1011.0
11 04:53 S 13 10.00 Light Rain BKN100 OVC120 64.9 46 51% 29.88 1011.1
11 03:53 S 16 G 24 10.00 Partly Cloudy SCT120 66 44.1 45% 29.88 1011.0
11 02:53 S 16 G 24 10.00 Fair CLR 66 43 43% 29.9 1011.8
11 01:53 S 15 10.00 Fair CLR 66.9 43 42% 29.92 1012.4
11 00:53 S 10 10.00 A Few Clouds FEW120 66.9 43 75 66.9 42% 29.95 1013.5
10 23:53 S 13 10.00 Fair CLR 66.9 43 42% 29.95 1013.7
10 22:53 SE 9 10.00 Fair CLR 66.9 45 45% 29.96 1013.9
10 21:53 SE 12 10.00 Fair CLR 68 46.9 47% 29.94 1013.5
10 20:53 SE 10 10.00 Fair CLR 69.1 46.9 45% 29.92 1012.6
10 19:53 SE 8 10.00 Fair CLR 73.9 48.9 41% 29.92 1012.8
10 18:53 SE 10 10.00 Fair CLR 75 51.1 77 71.1 43% 78 29.92 1012.9
10 17:53 E 7 10.00 Fair CLR 75.9 52 43% 78 29.93 1013.3
10 16:53 E 9 10.00 Fair CLR 75.9 52 43% 78 29.98 1014.8
10 15:53 SE 8 10.00 Fair CLR 75.9 52 43% 78 30 1015.6
10 14:53 S 9 10.00 Fair CLR 73.9 52 46% 30.02 1016.3
10 13:53 Vrbl 5 10.00 Fair CLR 73 52 48% 30.04 1016.8
10 12:53 SE 3 10.00 A Few Clouds FEW038 72 53.1 73 57 52% 30.06 1017.5
Date Time (cdt) Wind (mph) Vis. (mi.) Weather Sky Cond. Air Dwpt Max. Min. Relative Humidity Wind Chill (°F) Heat Index (°F) altimeter (in) sea level (mb) 1 hr 3 hr 6 hr
6 hour
Temperature (ºF) Pressure Precipitation (in)